FW4761 Weather Reports


Display with metric or nautical units.
time (UTC)temp
F
wind
direction
speed
MPH
gust
MPH
rain 1hr
in
rain 24hr
in
rain mn
in
humidity
%
barometer
mb
20210923132023 60 18 0.0 0.0 0.00 0.00 0.00 62 985.3
20210923131517 59 18 0.0 0.0 0.00 0.00 0.00 63 985.2
20210923131011 58 18 0.0 0.0 0.00 0.00 0.00 68 985.2
20210923130505 57 18 0.0 0.0 0.00 0.00 0.00 69 985.4
20210923125959 56 18 0.0 0.0 0.00 0.00 0.00 70 985.4
20210923125453 56 18 0.0 0.0 0.00 0.00 0.00 71 985.4
20210923124947 56 18 0.0 0.0 0.00 0.00 0.00 69 985.5
20210923124441 56 18 0.0 0.0 0.00 0.00 0.00 68 985.4
20210923123934 56 18 0.0 0.0 0.00 0.00 0.00 70 985.3
20210923123428 56 18 0.0 0.0 0.00 0.00 0.00 69 985.4
20210923122923 56 18 0.0 0.0 0.00 0.00 0.00 68 985.3
20210923122417 56 18 0.0 0.0 0.00 0.00 0.00 67 985.3
20210923121910 56 18 0.0 1.0 0.00 0.00 0.00 67 985.3
20210923121405 56 18 0.0 1.0 0.00 0.00 0.00 68 985.3
20210923120858 55 18 0.0 0.0 0.00 0.00 0.00 69 985.3
20210923120353 55 18 0.0 0.0 0.00 0.00 0.00 69 985.2
20210923115847 55 18 0.0 1.0 0.00 0.00 0.00 70 985.3
20210923115341 55 18 0.0 1.0 0.00 0.00 0.00 71 985.2
20210923114835 54 18 0.0 1.0 0.00 0.00 0.00 73 985.1
20210923114329 54 18 0.0 1.0 0.00 0.00 0.00 73 985.2
20210923113822 54 18 0.0 1.0 0.00 0.00 0.00 73 985.2
20210923113316 55 18 0.0 1.0 0.00 0.00 0.00 71 985.2
20210923112810 55 19 0.0 0.0 0.00 0.00 0.00 71 985.2
20210923112306 56 19 0.0 0.0 0.00 0.00 0.00 71 985.2
20210923111758 56 19 0.0 0.0 0.00 0.00 0.00 69 985.2
20210923111253 55 19 0.0 0.0 0.00 0.00 0.00 70 985.1
20210923110747 55 19 0.0 0.0 0.00 0.00 0.00 71 985.1
20210923110241 55 19 0.0 0.0 0.00 0.00 0.00 72 985.1
20210923105734 55 19 0.0 0.0 0.00 0.00 0.00 72 985.1
20210923105228 55 19 0.0 0.0 0.00 0.00 0.00 73 985.0
20210923104723 55 19 0.0 0.0 0.00 0.00 0.00 73 985.1
20210923104217 55 19 0.0 0.0 0.00 0.00 0.00 73 985.0
20210923103710 55 19 0.0 0.0 0.00 0.00 0.00 73 985.0
20210923103205 55 19 0.0 0.0 0.00 0.00 0.00 72 984.9
20210923102659 56 19 0.0 0.0 0.00 0.00 0.00 71 984.9
20210923102152 56 19 0.0 0.0 0.00 0.00 0.00 69 984.9
20210923101647 56 19 0.0 0.0 0.00 0.00 0.00 69 984.9
20210923101140 56 19 0.0 0.0 0.00 0.00 0.00 69 985.0
20210923100634 56 19 0.0 0.0 0.00 0.00 0.00 68 985.0
20210923100128 57 19 0.0 0.0 0.00 0.00 0.00 66 984.9
20210923095622 56 19 0.0 0.0 0.00 0.00 0.00 68 984.9
20210923095116 56 19 0.0 0.0 0.00 0.00 0.00 69 985.0
20210923094611 56 19 0.0 0.0 0.00 0.00 0.00 70 985.1
20210923094105 56 19 0.0 0.0 0.00 0.00 0.00 72 985.1
20210923093558 56 19 0.0 0.0 0.00 0.00 0.00 71 985.2
20210923093053 56 19 0.0 0.0 0.00 0.00 0.00 72 985.2
20210923092547 56 19 0.0 0.0 0.00 0.00 0.00 72 985.2
20210923092040 56 19 0.0 0.0 0.00 0.00 0.00 71 985.2
20210923091535 56 19 0.0 0.0 0.00 0.00 0.00 71 985.2
20210923091028 56 19 0.0 0.0 0.00 0.00 0.00 72 985.3
20210923090522 56 19 0.0 0.0 0.00 0.00 0.00 72 985.3
20210923090016 56 19 0.0 0.0 0.00 0.00 0.00 73 985.4
20210923085511 56 19 0.0 0.0 0.00 0.00 0.00 73 985.4
20210923085005 56 19 0.0 0.0 0.00 0.00 0.00 73 985.4
20210923084459 56 19 0.0 0.0 0.00 0.00 0.00 72 985.4
20210923083953 56 19 0.0 0.0 0.00 0.00 0.00 73 985.4
20210923083446 56 19 0.0 0.0 0.00 0.00 0.00 72 985.5
20210923082941 56 19 0.0 0.0 0.00 0.00 0.00 71 985.5
20210923082434 56 19 0.0 0.0 0.00 0.00 0.00 71 985.6
20210923081928 56 19 0.0 0.0 0.00 0.00 0.00 72 985.5
20210923081422 56 19 0.0 0.0 0.00 0.00 0.00 72 985.5
20210923080916 57 19 0.0 0.0 0.00 0.00 0.00 71 985.5
20210923080410 57 19 0.0 0.0 0.00 0.00 0.00 70 985.5
20210923075904 57 19 0.0 0.0 0.00 0.00 0.00 69 985.6
20210923075359 57 19 0.0 0.0 0.00 0.00 0.00 68 985.6
20210923074852 57 19 0.0 0.0 0.00 0.00 0.00 68 985.6
20210923074347 57 19 0.0 0.0 0.00 0.00 0.00 70 985.7
20210923073841 57 19 0.0 0.0 0.00 0.00 0.00 71 985.8
20210923073335 57 19 0.0 0.0 0.00 0.00 0.00 71 985.8
20210923072828 58 19 0.0 0.0 0.00 0.00 0.00 70 985.7
20210923072323 58 19 0.0 0.0 0.00 0.00 0.00 67 985.7
20210923071817 58 19 0.0 1.0 0.00 0.00 0.00 65 985.7
20210923071310 58 19 0.0 0.0 0.00 0.00 0.00 66 985.8
20210923070806 58 19 0.0 1.0 0.00 0.00 0.00 67 985.7
20210923070306 58 19 0.0 1.0 0.00 0.00 0.00 70 985.8
20210923065807 58 19 0.0 0.0 0.00 0.00 0.00 68 985.8
20210923065306 58 19 0.0 1.0 0.00 0.00 0.00 66 985.8
20210923064802 58 19 0.0 1.0 0.00 0.00 0.00 66 985.8
20210923064301 58 19 0.0 1.0 0.00 0.00 0.00 70 985.7
20210923063759 59 19 0.0 1.0 0.00 0.00 0.00 67 985.8
20210923063301 59 19 0.0 1.0 0.00 0.00 0.00 65 985.8
20210923062800 59 19 0.0 0.0 0.00 0.00 0.00 64 985.8
20210923062300 59 19 0.0 0.0 0.00 0.00 0.00 66 985.8
20210923061800 58 19 0.0 0.0 0.00 0.00 0.00 66 985.8
20210923061258 59 19 0.0 0.0 0.00 0.00 0.00 66 985.7
20210923060758 59 19 0.0 0.0 0.00 0.00 0.00 67 985.7
20210923060259 59 19 0.0 0.0 0.00 0.00 0.00 64 985.7
20210923055754 60 19 0.0 0.0 0.00 0.00 0.00 64 985.7
20210923055254 59 19 0.0 0.0 0.00 0.00 0.00 64 985.8
20210923054755 59 19 0.0 1.0 0.00 0.00 0.00 65 985.8
20210923054254 59 19 0.0 1.0 0.00 0.00 0.00 66 985.8
20210923053755 60 19 0.0 0.0 0.00 0.00 0.00 65 985.8
20210923053255 60 19 0.0 0.0 0.00 0.00 0.00 64 986.0
20210923052754 60 19 0.0 0.0 0.00 0.00 0.00 64 985.9
20210923052255 60 19 0.0 0.0 0.00 0.00 0.00 65 985.9
20210923051755 60 19 0.0 0.0 0.00 0.00 0.00 65 985.9
20210923051255 60 19 0.0 0.0 0.00 0.00 0.00 65 985.9
20210923050754 60 19 0.0 0.0 0.00 0.00 0.00 65 985.9
20210923050253 60 19 0.0 0.0 0.00 0.00 0.00 64 985.9
20210923045752 61 19 0.0 0.0 0.00 0.00 0.00 63 986.0
20210923045251 61 19 0.0 0.0 0.00 0.00 0.00 63 985.9
20210923044752 61 19 0.0 0.0 0.00 0.00 0.00 63 986.0
20210923044251 61 19 0.0 0.0 0.00 0.00 0.00 62 986.0
20210923043752 62 19 0.0 0.0 0.00 0.00 0.00 62 986.0
20210923043249 62 19 0.0 0.0 0.00 0.00 0.00 61 985.9
20210923042743 62 19 0.0 0.0 0.00 0.00 0.00 60 985.9
20210923042236 62 19 0.0 0.0 0.00 0.00 0.00 59 985.9
20210923041730 62 19 0.0 1.0 0.00 0.00 0.00 61 985.8
20210923041224 62 19 0.0 1.0 0.00 0.00 0.00 60 985.9
20210923040719 62 19 0.0 1.0 0.00 0.00 0.00 60 985.9
20210923040212 63 19 0.0 1.0 0.00 0.00 0.00 60 985.9
20210923035707 63 19 0.0 0.0 0.00 0.00 0.00 57 985.8
20210923035201 63 19 0.0 0.0 0.00 0.00 0.00 51 985.8
20210923034655 64 19 0.0 0.0 0.00 0.00 0.00 54 985.9
20210923034148 64 19 0.0 0.0 0.00 0.00 0.00 54 985.9
20210923033642 64 19 0.0 3.0 0.00 0.00 0.00 55 985.9
20210923033136 64 19 0.0 3.0 0.00 0.00 0.00 54 986.0
20210923032630 66 19 1.0 3.0 0.00 0.00 0.00 52 985.9
20210923032124 67 19 2.0 3.0 0.00 0.00 0.00 42 985.9
20210923031619 67 19 1.0 3.0 0.00 0.00 0.00 43 985.9
20210923031113 66 19 1.0 3.0 0.00 0.00 0.00 43 985.9
20210923030607 66 20 1.0 3.0 0.00 0.00 0.00 44 986.0
20210923030100 65 20 1.0 3.0 0.00 0.00 0.00 50 985.9
20210923025554 65 21 0.0 0.0 0.00 0.00 0.00 54 986.0
20210923025048 65 21 0.0 0.0 0.00 0.00 0.00 50 986.0
20210923024543 65 21 0.0 0.0 0.00 0.00 0.00 51 986.0
20210923024037 65 21 0.0 0.0 0.00 0.00 0.00 53 986.0
20210923023531 65 21 0.0 0.0 0.00 0.00 0.00 51 986.0
20210923023025 66 21 0.0 0.0 0.00 0.00 0.00 49 985.9
20210923022519 66 21 0.0 0.0 0.00 0.00 0.00 51 985.9
20210923022013 66 21 0.0 0.0 0.00 0.00 0.00 52 985.9
20210923021506 66 21 0.0 0.0 0.00 0.00 0.00 51 986.0
20210923021000 66 21 0.0 0.0 0.00 0.00 0.00 52 985.9
20210923020454 67 21 0.0 0.0 0.00 0.00 0.00 52 985.9
20210923015948 67 21 0.0 0.0 0.00 0.00 0.00 49 985.9
20210923015442 68 21 0.0 0.0 0.00 0.00 0.00 47 985.8
20210923014937 68 21 0.0 0.0 0.00 0.00 0.00 45 985.8
20210923014431 68 21 0.0 0.0 0.00 0.00 0.00 45 985.7
20210923013925 69 21 0.0 0.0 0.00 0.00 0.00 45 985.6
20210923013418 69 21 0.0 2.0 0.00 0.00 0.00 45 985.6
20210923012912 70 21 0.0 1.0 0.00 0.00 0.00 39 985.5
20210923012406 71 21 0.0 2.0 0.00 0.00 0.00 36 985.5
20210923011900 71 21 1.0 3.0 0.00 0.00 0.00 36 985.4
20210923011354 72 21 1.0 3.0 0.00 0.00 0.00 36 985.4
20210923010849 72 21 0.0 2.0 0.00 0.00 0.00 36 985.3
20210923010343 72 21 0.0 1.0 0.00 0.00 0.00 35 985.3
20210923005837 73 21 1.0 2.0 0.00 0.00 0.00 34 985.2
20210923005330 73 21 1.0 3.0 0.00 0.00 0.00 34 985.3
20210923004825 73 21 1.0 3.0 0.00 0.00 0.00 33 985.2
20210923004318 74 23 2.0 3.0 0.00 0.00 0.00 33 985.3
20210923003812 74 26 2.0 3.0 0.00 0.00 0.00 32 985.3
20210923003307 74 28 1.0 3.0 0.00 0.00 0.00 32 985.4
20210923002801 75 28 2.0 4.0 0.00 0.00 0.00 31 985.4
20210923002255 75 28 2.0 4.0 0.00 0.00 0.00 31 985.4
20210923001748 76 30 2.0 4.0 0.00 0.00 0.00 30 985.5
20210923001243 76 29 2.0 4.0 0.00 0.00 0.00 30 985.4
20210923000737 77 29 3.0 5.0 0.00 0.00 0.00 29 985.4
20210923000231 77 12 3.0 7.0 0.00 0.00 0.00 29 985.5
20210922235725 78 23 3.0 7.0 0.00 0.00 0.00 28 985.5
20210922235218 78 11 3.0 5.0 0.00 0.00 0.00 27 985.6
20210922234712 78 0 3.0 8.0 0.00 0.00 0.00 27 985.6
20210922234207 79 27 4.0 8.0 0.00 0.00 0.00 26 985.7
20210922233701 79 21 4.0 8.0 0.00 0.00 0.00 26 985.6
20210922233154 79 5 3.0 8.0 0.00 0.00 0.00 26 985.8
20210922232648 79 355 2.0 5.0 0.00 0.00 0.00 26 985.7
20210922232142 79 329 4.0 9.0 0.00 0.00 0.00 26 985.7
20210922231636 79 342 5.0 10.0 0.00 0.00 0.00 26 985.9
20210922231131 80 313 5.0 10.0 0.00 0.00 0.00 26 985.8
20210922230625 80 19 6.0 12.0 0.00 0.00 0.00 26 985.9
20210922230119 80 40 7.0 13.0 0.00 0.00 0.00 25 985.9
20210922225613 80 11 6.0 13.0 0.00 0.00 0.00 25 985.9
20210922225106 80 355 5.0 12.0 0.00 0.00 0.00 25 985.9
20210922224600 80 0 3.0 9.0 0.00 0.00 0.00 24 986.0
20210922224055 80 17 3.0 12.0 0.00 0.00 0.00 27 986.1
20210922223553 80 40 6.0 12.0 0.00 0.00 0.00 26 986.2
20210922223053 80 5 8.0 12.0 0.00 0.00 0.00 25 986.2
20210922222553 80 35 7.0 13.0 0.00 0.00 0.00 25 986.2
20210922222052 81 28 5.0 13.0 0.00 0.00 0.00 25 986.4
20210922221551 81 26 6.0 13.0 0.00 0.00 0.00 25 986.3
20210922221051 81 9 4.0 13.0 0.00 0.00 0.00 24 986.4
20210922220551 80 12 4.0 13.0 0.00 0.00 0.00 25 986.4
20210922220049 80 0 7.0 14.0 0.00 0.00 0.00 25 986.5
20210922215548 81 5 7.0 14.0 0.00 0.00 0.00 25 986.7
20210922215049 81 11 6.0 12.0 0.00 0.00 0.00 25 986.6
20210922214549 81 28 5.0 10.0 0.00 0.00 0.00 26 986.8
20210922214050 81 5 5.0 11.0 0.00 0.00 0.00 25 986.8
20210922213545 81 298 6.0 15.0 0.00 0.00 0.00 25 986.9
20210922213044 81 312 7.0 15.0 0.00 0.00 0.00 25 986.9
20210922212544 81 317 6.0 12.0 0.00 0.00 0.00 25 987.1
20210922212044 81 42 3.0 12.0 0.00 0.00 0.00 25 987.1
20210922211544 81 52 2.0 6.0 0.00 0.00 0.00 26 987.1
20210922211048 80 204 5.0 13.0 0.00 0.00 0.00 26 987.3
20210922210548 81 344 5.0 13.0 0.00 0.00 0.00 26 987.5
20210922210048 81 12 4.0 12.0 0.00 0.00 0.00 27 987.4
20210922205548 80 15 5.0 9.0 0.00 0.00 0.00 27 987.5
20210922205045 80 22 4.0 16.0 0.00 0.00 0.00 27 987.6
20210922204544 80 17 6.0 16.0 0.00 0.00 0.00 26 987.6
20210922204044 80 40 9.0 16.0 0.00 0.00 0.00 27 987.6
20210922203544 81 355 8.0 16.0 0.00 0.00 0.00 26 987.7
20210922203044 81 0 8.0 17.0 0.00 0.00 0.00 26 987.8
20210922202544 80 32 6.0 17.0 0.00 0.00 0.00 25 987.8
20210922202044 80 17 6.0 15.0 0.00 0.00 0.00 26 988.0
20210922201542 80 342 8.0 15.0 0.00 0.00 0.00 26 988.1
20210922201040 80 335 8.0 15.0 0.00 0.00 0.00 26 988.1
20210922200540 80 344 6.0 15.0 0.00 0.00 0.00 26 988.3
20210922200034 80 331 5.0 10.0 0.00 0.00 0.00 27 988.3
20210922195527 80 350 3.0 10.0 0.00 0.00 0.00 28 988.3
20210922195021 79 141 3.0 10.0 0.00 0.00 0.00 29 988.5
20210922194515 79 9 8.0 16.0 0.00 0.00 0.00 28 988.6
20210922194009 79 350 10.0 16.0 0.00 0.00 0.00 27 988.7
20210922193503 80 15 8.0 15.0 0.00 0.00 0.00 28 988.7
20210922192958 79 328 8.0 15.0 0.00 0.00 0.00 28 988.9
20210922192452 80 335 7.0 13.0 0.00 0.00 0.00 27 989.0
20210922191950 80 292 8.0 14.0 0.00 0.00 0.00 28 989.1
20210922191440 79 346 7.0 14.0 0.00 0.00 0.00 27 989.3
20210922190934 79 30 7.0 14.0 0.00 0.00 0.00 28 989.3
20210922190428 79 22 7.0 16.0 0.00 0.00 0.00 28 989.5
20210922185922 79 0 9.0 16.0 0.00 0.00 0.00 27 989.7
20210922185416 79 316 9.0 17.0 0.00 0.00 0.00 28 989.8
20210922184909 79 355 7.0 17.0 0.00 0.00 0.00 28 989.7
20210922184403 79 323 8.0 16.0 0.00 0.00 0.00 28 989.9
20210922183858 79 328 9.0 16.0 0.00 0.00 0.00 28 990.0
20210922183352 78 14 6.0 14.0 0.00 0.00 0.00 29 990.1
20210922182845 79 5 4.0 9.0 0.00 0.00 0.00 29 990.2
20210922182339 78 80 6.0 12.0 0.00 0.00 0.00 30 990.4
20210922181834 78 12 8.0 17.0 0.00 0.00 0.00 29 990.5
20210922181328 79 49 7.0 17.0 0.00 0.00 0.00 28 990.7
20210922180821 78 347 5.0 14.0 0.00 0.00 0.00 32 990.7
20210922180316 78 355 6.0 14.0 0.00 0.00 0.00 32 990.7
20210922175810 78 26 6.0 14.0 0.00 0.00 0.00 30 990.8
20210922175305 78 338 7.0 15.0 0.00 0.00 0.00 30 991.1
20210922174757 78 355 6.0 15.0 0.00 0.00 0.00 31 991.0
20210922174251 77 355 5.0 12.0 0.00 0.00 0.00 32 991.2
20210922173746 77 355 6.0 14.0 0.00 0.00 0.00 32 991.3
20210922173240 77 68 7.0 15.0 0.00 0.00 0.00 31 991.3
20210922172734 77 336 8.0 15.0 0.00 0.00 0.00 32 991.4
20210922172228 76 355 8.0 17.0 0.00 0.00 0.00 32 991.5
20210922171722 77 69 8.0 17.0 0.00 0.00 0.00 32 991.6
20210922171216 76 13 7.0 15.0 0.00 0.00 0.00 32 991.6
20210922170710 76 25 5.0 13.0 0.00 0.00 0.00 34 991.6
20210922170204 76 14 5.0 11.0 0.00 0.00 0.00 36 991.7
20210922165658 75 19 6.0 11.0 0.00 0.00 0.00 36 991.8
20210922165151 76 32 4.0 11.0 0.00 0.00 0.00 36 991.9
20210922164646 76 34 4.0 13.0 0.00 0.00 0.00 37 991.9
20210922164139 75 0 6.0 13.0 0.00 0.00 0.00 37 991.9
20210922163634 75 5 6.0 13.0 0.00 0.00 0.00 37 992.1
20210922163128 75 36 5.0 13.0 0.00 0.00 0.00 38 992.1
20210922162621 74 5 4.0 11.0 0.00 0.00 0.00 39 992.3
20210922162115 74 40 6.0 13.0 0.00 0.00 0.00 40 992.4
20210922161610 74 50 6.0 13.0 0.00 0.00 0.00 39 992.3
20210922161103 73 38 5.0 10.0 0.00 0.00 0.00 40 992.4
20210922160557 72 22 4.0 11.0 0.00 0.00 0.00 42 992.4
20210922160051 73 20 4.0 11.0 0.00 0.00 0.00 42 992.4
20210922155545 72 79 5.0 11.0 0.00 0.00 0.00 43 992.4
20210922155040 71 355 5.0 11.0 0.00 0.00 0.00 43 992.4
20210922154533 71 9 5.0 9.0 0.00 0.00 0.00 43 992.5
20210922154028 71 342 4.0 8.0 0.00 0.00 0.00 43 992.6
20210922153521 70 5 5.0 10.0 0.00 0.00 0.00 44 992.5
20210922153016 70 25 5.0 10.0 0.00 0.00 0.00 45 992.5
20210922152510 69 30 5.0 9.0 0.00 0.00 0.00 45 992.6
20210922152003 69 13 4.0 9.0 0.00 0.00 0.00 45 992.6
20210922151458 69 39 4.0 9.0 0.00 0.00 0.00 46 992.7
20210922150952 69 9 4.0 9.0 0.00 0.00 0.00 46 992.6
20210922150446 68 25 5.0 10.0 0.00 0.00 0.00 46 992.6
20210922145940 68 355 5.0 10.0 0.00 0.00 0.00 47 992.6
20210922145435 68 9 5.0 10.0 0.00 0.00 0.00 46 992.5
20210922144927 68 319 5.0 10.0 0.00 0.00 0.00 46 992.5
20210922144422 68 63 6.0 11.0 0.00 0.00 0.00 46 992.6
20210922143916 68 344 5.0 11.0 0.00 0.00 0.00 46 992.5
20210922143410 68 5 5.0 12.0 0.00 0.00 0.00 45 992.5
20210922142903 67 10 6.0 12.0 0.00 0.00 0.00 46 992.5
20210922142402 67 318 5.0 11.0 0.00 0.00 0.00 46 992.4
20210922141901 67 19 6.0 12.0 0.00 0.00 0.00 47 992.4
20210922141359 67 13 6.0 12.0 0.00 0.00 0.00 47 992.4
20210922140857 66 355 6.0 12.0 0.00 0.00 0.00 49 992.3
20210922140359 66 5 6.0 12.0 0.00 0.00 0.00 48 992.3
20210922135858 66 0 6.0 11.0 0.00 0.00 0.00 49 992.1
20210922135355 65 355 5.0 10.0 0.00 0.00 0.00 49 992.1
20210922134856 65 17 3.0 9.0 0.00 0.00 0.00 50 992.1
20210922134356 64 28 3.0 8.0 0.00 0.00 0.00 53 992.0
20210922133854 62 340 2.0 6.0 0.00 0.00 0.00 57 992.1
20210922133354 61 297 2.0 6.0 0.00 0.00 0.00 60 992.0
20210922132854 60 287 2.0 4.0 0.00 0.00 0.00 61 992.0
20210922132352 60 286 2.0 3.0 0.00 0.00 0.00 63 991.9